Volver al catálogo

ARIANE 2 DEB

LostGTO
NORAD 27649·DEBRIS·🇫🇷 France

Lanzado Jan 27, 1989 desde Guiana Space Centre

Loading…

TLE

ObsoletoSource: Space-Track

Época: Jul 2, 2025, 18:28 UTC

1 27649U 89006AD  25183.76953880 -.00000197  00000-0  00000-0 0  9994
2 27649   8.5896 332.7437 6983464 306.6678 296.9762  2.22833661 98035

Sigue ARIANE 2 DEB en tiempo real con AllMySat

Download on the App Store